Flag for Russia Weather past 2 weeks in Saint-Petersburg, Russia

Now
39 °F

Sunny.


Feels Like: 39 °F
Forecast: 47 / 63 °F
Wind: No wind

Location: St. Petersburg


UV Index: 0 (Low)

Visibility: 10 mi


Pressure: 30.24 "Hg

Humidity: 87%

Dew point: 36 °F

Location of Saint-PetersburgLocation

Historic Weather in Saint-Petersburg

°F

Saint-Petersburg temperature yesterday

Maximum temperature yesterday: 61 °F (at 2:00 PM)
Minimum temperature yesterday: 36 °F (at 4:00 AM)
Average temperature yesterday: 49 °F

Past Weeks' High & Low Weather Summary

 TemperatureHumidityPressure
High61 °F (Apr 18, 4:00 PM)100% (Apr 6, 7:30 PM)30.39 "Hg (Apr 6, 7:30 PM)
Low21 °F (Apr 9, 4:00 AM)20% (Apr 11, 4:30 PM)29.42 "Hg (Apr 14, 1:00 PM)
Average42 °F59%29.99 "Hg
* Reported Apr 6 6:00 AM — Apr 21 6:30 AM, Saint-Petersburg, Weather by CustomWeather, © 2014

Note: Actual official high and low records may vary slightly from our data, if they occured in-between our weather recording intervals... More about our weather records

Advertising

Historic Weather Conditions — Data for Previous 24 hours

 ConditionsComfort  
Time TempWeatherWind HumidityBarometerVisibility
6:30 AM
Apr 21
36 °FClear.No wind93%30.24 "Hg10 mi
6:00 AM37 °FClear.No wind87%30.24 "Hg10 mi
5:30 AM37 °FClear.No wind87%30.24 "Hg10 mi
5:00 AM39 °FClear.No wind81%30.27 "Hg10 mi
4:30 AM39 °FClear.No wind87%30.27 "Hg10 mi
4:00 AM41 °FClear.No wind81%30.27 "Hg10 mi
3:30 AM41 °FClear.No wind81%30.27 "Hg10 mi
3:00 AM41 °FClear.No wind81%30.27 "Hg10 mi
2:30 AM39 °FClear.No wind87%30.27 "Hg10 mi
2:00 AM41 °FClear.No wind81%30.27 "Hg10 mi
1:00 AM41 °FClear.No wind81%30.24 "Hg10 mi
12:30 AM43 °FClear.No wind81%30.24 "Hg10 mi
12:00 AM43 °FClear.No wind81%30.24 "Hg10 mi
11:30 PM
Apr 20
45 °FClear.1 mph76%30.24 "Hg10 mi
11:00 PM45 °FClear.No wind76%30.24 "Hg10 mi
10:30 PM46 °FClear.1 mph66%30.24 "Hg10 mi
10:00 PM48 °FSunny.3 mph62%30.24 "Hg10 mi
9:30 PM50 °FSunny.3 mph58%30.24 "Hg10 mi
9:00 PM54 °FPassing clouds.3 mph51%30.24 "HgN/A
8:30 PM55 °FPassing clouds.3 mph44%30.24 "HgN/A
8:00 PM57 °FPassing clouds.3 mph39%30.24 "HgN/A
7:30 PM57 °FSunny.6 mph39%30.24 "Hg10 mi
7:00 PM59 °FSunny.8 mph34%30.24 "Hg10 mi
6:30 PM59 °FSunny.8 mph31%30.24 "Hg10 mi
6:00 PM59 °FSunny.8 mph29%30.24 "Hg10 mi
5:30 PM59 °FSunny.8 mph36%30.24 "Hg10 mi
5:00 PM61 °FPassing clouds.10 mph29%30.24 "HgN/A
4:30 PM61 °FSunny.10 mph23%30.24 "Hg10 mi
4:00 PM61 °FSunny.13 mph27%30.24 "Hg10 mi
3:30 PM61 °FPassing clouds.13 mph34%30.27 "HgN/A
3:00 PM61 °FSunny.13 mph31%30.27 "Hg10 mi
2:30 PM59 °FPassing clouds.10 mph42%30.27 "HgN/A
2:00 PM61 °FPassing clouds.8 mph39%30.27 "HgN/A
1:30 PM59 °FPassing clouds.8 mph42%30.27 "HgN/A
1:00 PM59 °FPassing clouds.8 mph42%30.27 "HgN/A
12:30 PM57 °FSunny.8 mph44%30.27 "Hg10 mi
12:00 PM55 °FPassing clouds.6 mph47%30.27 "HgN/A
11:30 AM55 °FPassing clouds.6 mph47%30.27 "HgN/A
11:00 AM54 °FPassing clouds.6 mph51%30.27 "HgN/A
10:30 AM52 °FPassing clouds.3 mph54%30.27 "HgN/A
10:00 AM52 °FSunny.6 mph50%30.27 "Hg10 mi
9:30 AM48 °FSunny.8 mph54%30.27 "Hg10 mi
9:00 AM46 °FSunny.6 mph57%30.27 "Hg10 mi
8:30 AM46 °FPassing clouds.3 mph62%30.27 "HgN/A
8:00 AM43 °FSunny.3 mph66%30.27 "Hg10 mi
Weather by CustomWeather, © 2014

See weather overview